Simultaneous Nadir Overpasses (SNOs) Predictions

Prediction of SNOs between NOAA-19 and NPP Satellite Orbit:

Table of predicted SNOs for the next 14.0 days since TLE Epoch: 5/9/2016
Index Date (NOAA-19) Time (NOAA-19) Lat,Lon (NOAA-19) SZA (NOAA-19 ) Date (NPP) Time (NPP) Lat,Lon (NPP) SZA (NPP ) Distance(km) Time Diff (sec)
1 05/10/2016 21:43:51 81.00, 160.76 66.73 05/10/2016 21:44:59 81.00, 160.86 66.68 1.79 68
2 05/10/2016 22:34:56 -81.00, -31.80 113.31 05/10/2016 22:35:44 -81.01, -31.95 113.32 2.59 48
3 05/10/2016 23:25:53 81.00, 135.29 66.71 05/10/2016 23:26:29 81.00, 135.45 66.67 2.80 36
4 05/11/2016 00:16:58 -81.00, -57.27 113.33 05/11/2016 00:17:14 -81.01, -57.36 113.33 1.55 16
5 05/11/2016 01:07:54 81.00, 110.20 66.64 05/11/2016 01:07:59 81.00, 110.04 66.65 2.76 5
6 05/11/2016
